User: anonymous   Login
Location: Unspecified
(0.0000°N, 0.0000°E)
Time: 02:03:49
(UTC+01:00)
Language:

ARIANE 5 DEB (SYLDA) - Orbit

View from above orbital plane
View from above orbital plane
View from above satellite
View from above satellite

Ground track
Ground track

The orbit data is extracted from the following two-line orbital elements,

1 32770U 08018D   14267.60718750  .43034234 -26918-4  78701-2 0  8998
2 32770 001.4268 110.6153 0702027 328.9471 116.9559 14.78559565 79200
Epoch (UTC): 24 September 2014 14:34:21
Eccentricity: 0.0702027
inclination: 1.4268°
perigee height: 141 km
apogee height: 1126 km
right ascension of ascending node: 110.6153°
argument of perigee: 328.9471°
revolutions per day: 14.78559565
mean anomaly at epoch: 116.9559°
orbit number at epoch: 7920

The dashed part of the orbit path shows where the satellite is in the earth's shadow,  

DLR